FW7499 Weather Reports


Display with metric or nautical units.
time (UTC)temp
F
wind
direction
speed
MPH
gust
MPH
rain 1hr
in
rain 24hr
in
rain mn
in
humidity
%
barometer
mb
20260904174008 92 327 1.0 5.0 0.00 0.00 0.00 1012.6
20260904173510 91 343 2.0 6.0 0.00 0.00 0.00 1012.6
20260904173012 91 171 2.0 6.0 0.00 0.00 0.00 62 1012.7
20260904172504 89 352 1.0 7.0 0.00 0.00 0.00 62 1012.7
20260904172010 90 259 1.0 7.0 0.00 0.00 0.00 59 1012.7
20260904171527 90 297 2.0 7.0 0.00 0.00 0.00 59 1012.7
20260904171016 91 327 1.0 7.0 0.00 0.00 0.00 58 1012.7
20260904170505 90 269 3.0 7.0 0.00 0.00 0.00 60 1012.6
20260904170009 90 132 2.0 3.0 0.00 0.00 0.00 60 1012.6
20260904165508 89 98 1.0 3.0 0.00 0.00 0.00 62 1012.6
20260904165007 89 222 1.0 4.0 0.00 0.00 0.00 64 1012.7
20260904164513 88 147 1.0 4.0 0.00 0.00 0.00 62 1012.7
20260904164011 88 272 1.0 4.0 0.00 0.00 0.00 65 1012.7
20260904163514 87 327 0.0 4.0 0.00 0.00 0.00 65 1012.7
20260904163013 87 263 2.0 4.0 0.00 0.00 0.00 63 1012.6
20260904162510 88 179 1.0 7.0 0.00 0.00 0.00 62 1012.5
20260904162014 88 161 2.0 7.0 0.00 0.00 0.00 62 1012.5
20260904161509 88 300 2.0 4.0 0.00 0.00 0.00 61 1012.6
20260904161013 88 22 1.0 4.0 0.00 0.00 0.00 63 1012.7
20260904160512 87 294 1.0 4.0 0.00 0.00 0.00 64 1012.7
20260904160017 87 203 1.0 4.0 0.00 0.00 0.00 64 1012.8
20260904155516 87 310 1.0 4.0 0.00 0.00 0.00 64 1012.8
20260904155006 87 269 1.0 5.0 0.00 0.00 0.00 64 1012.8
20260904154508 86 307 1.0 5.0 0.00 0.00 0.00 66 1012.8
20260904154006 86 189 1.0 4.0 0.00 0.00 0.00 65 1012.7
20260904153511 86 180 1.0 4.0 0.00 0.00 0.00 65 1012.7
20260904153020 86 213 1.0 4.0 0.00 0.00 0.00 65 1012.7
20260904152502 86 102 0.0 4.0 0.00 0.00 0.00 66 1012.7
20260904152010 85 143 1.0 4.0 0.00 0.00 0.00 66 1012.6
20260904151508 85 339 2.0 5.0 0.00 0.00 0.00 68 1012.7
20260904151013 84 333 1.0 5.0 0.00 0.00 0.00 67 1012.7
20260904150503 84 34 1.0 3.0 0.00 0.00 0.00 67 1012.7
20260904150015 84 292 0.0 3.0 0.00 0.00 0.00 70 1012.7
20260904145504 84 180 1.0 3.0 0.00 0.00 0.00 68 1012.7
20260904145005 84 188 1.0 3.0 0.00 0.00 0.00 68 1012.8
20260904144502 84 273 1.0 3.0 0.00 0.00 0.00 69 1012.7
20260904144008 83 269 1.0 3.0 0.00 0.00 0.00 69 1012.8
20260904143504 83 346 1.0 4.0 0.00 0.00 0.00 70 1012.7
20260904143010 82 188 0.0 4.0 0.00 0.00 0.00 70 1012.7
20260904142510 82 223 1.0 3.0 0.00 0.00 0.00 70 1012.7
20260904142003 82 283 0.0 2.0 0.00 0.00 0.00 72 1012.7
20260904141508 82 173 1.0 3.0 0.00 0.00 0.00 70 1012.7
20260904141010 81 159 0.0 3.0 0.00 0.00 0.00 71 1012.7
20260904140503 81 225 0.0 2.0 0.00 0.00 0.00 71 1012.7
20260904140019 81 225 1.0 2.0 0.00 0.00 0.00 72 1012.7
20260904135504 81 286 0.0 4.0 0.00 0.00 0.00 72 1012.7
20260904135004 81 172 1.0 4.0 0.00 0.00 0.00 72 1012.7
20260904134507 80 111 0.0 2.0 0.00 0.00 0.00 73 1012.6
20260904134002 80 198 0.0 2.0 0.00 0.00 0.00 73 1012.6
20260904133507 80 242 0.0 4.0 0.00 0.00 0.00 73 1012.5
20260904133011 80 216 2.0 4.0 0.00 0.00 0.00 73 1012.4
20260904132510 80 192 1.0 4.0 0.00 0.00 0.00 73 1012.3
20260904132005 80 171 1.0 4.0 0.00 0.00 0.00 73 1012.3
20260904131510 80 182 0.0 2.0 0.00 0.00 0.00 73 1012.2
20260904131013 79 182 0.0 2.0 0.00 0.00 0.00 75 1012.1
20260904130505 79 121 0.0 2.0 0.00 0.00 0.00 75 1012.1
20260904130007 79 112 0.0 2.0 0.00 0.00 0.00 75 1012.1
20260904125512 79 214 0.0 2.0 0.00 0.00 0.00 77 1012.0
20260904125016 78 214 0.0 2.0 0.00 0.00 0.00 77 1012.0
20260904124508 77 215 0.0 2.0 0.00 0.00 0.00 78 1011.9
20260904124005 77 215 0.0 2.0 0.00 0.00 0.00 77 1011.8
20260904123508 77 154 0.0 2.0 0.00 0.00 0.00 78 1011.7
20260904123007 77 154 0.0 2.0 0.00 0.00 0.00 77 1011.6
20260904122656 77 154 0.0 2.0 0.00 0.00 0.00 77 1011.6
20260904122651 77 153 0.0 2.0 0.00 0.00 0.00 76 1011.6
20260904122647 77 153 0.0 2.0 0.00 0.00 0.00 76 1011.6
20260904122644 77 153 0.0 2.0 0.00 0.00 0.00 77 1011.6
20260904120511 77 153 0.0 2.0 0.00 0.00 0.00 77 1011.6
20260904120020 77 153 0.0 2.0 0.00 0.00 0.00 76 1011.5
20260904115509 77 153 0.0 2.0 0.00 0.00 0.00 76 1011.5
20260904115009 78 153 0.0 2.0 0.00 0.00 0.00 75 1011.5
20260904114520 78 153 0.0 1.0 0.00 0.00 0.00 75 1011.5
20260904114007 78 153 0.0 2.0 0.00 0.00 0.00 75 1011.5
20260904113506 78 153 0.0 2.0 0.00 0.00 0.00 74 1011.5
20260904113020 78 138 0.0 2.0 0.00 0.00 0.00 74 1011.5
20260904112507 78 154 0.0 2.0 0.00 0.00 0.00 74 1011.5
20260904112007 78 182 0.0 2.0 0.00 0.00 0.00 73 1011.5
20260904111517 79 180 0.0 2.0 0.00 0.00 0.00 73 1011.5
20260904111010 79 198 0.0 2.0 0.00 0.00 0.00 73 1011.5
20260904110512 79 196 0.0 2.0 0.00 0.00 0.00 72 1011.5
20260904110010 79 181 0.0 3.0 0.00 0.00 0.00 72 1011.5
20260904105512 79 173 0.0 3.0 0.00 0.00 0.00 72 1011.4
20260904105012 79 150 0.0 4.0 0.00 0.00 0.00 72 1011.4
20260904104528 80 165 0.0 5.0 0.00 0.00 0.00 71 1011.3
20260904104012 80 256 0.0 5.0 0.00 0.00 0.00 71 1011.3
20260904103511 80 204 0.0 4.0 0.00 0.00 0.00 70 1011.4
20260904103041 80 328 1.0 4.0 0.00 0.00 0.00 70 1011.4
20260904102506 80 194 1.0 3.0 0.00 0.00 0.00 70 1011.4
20260904102006 80 137 1.0 3.0 0.00 0.00 0.00 70 1011.4
20260904101514 80 322 0.0 4.0 0.00 0.00 0.00 69 1011.3
20260904101009 81 248 1.0 4.0 0.00 0.01 0.00 69 1011.3
20260904100512 81 306 2.0 4.0 0.00 0.02 0.00 68 1011.3
20260904100018 81 123 1.0 5.0 0.00 0.02 0.00 68 1011.3
20260904095512 81 197 1.0 6.0 0.00 0.02 0.00 68 1011.2
20260904095012 81 242 2.0 8.0 0.00 0.02 0.00 68 1011.2
20260904094521 81 293 3.0 8.0 0.00 0.02 0.00 68 1011.1
20260904094007 81 207 2.0 7.0 0.00 0.02 0.00 68 1011.2
20260904093515 81 322 2.0 6.0 0.00 0.02 0.00 68 1011.1
20260904093018 81 157 1.0 6.0 0.00 0.02 0.00 67 1011.0
20260904092512 81 274 1.0 6.0 0.00 0.02 0.00 67 1011.0
20260904092016 81 211 2.0 6.0 0.00 0.02 0.00 67 1010.9
20260904091516 81 168 0.0 4.0 0.00 0.02 0.00 67 1010.8
20260904091015 82 245 1.0 5.0 0.00 0.02 0.00 67 1010.8
20260904090513 81 126 1.0 7.0 0.00 0.02 0.00 67 1010.8
20260904090014 81 184 2.0 7.0 0.00 0.02 0.00 67 1010.7
20260904085511 82 266 2.0 4.0 0.00 0.02 0.00 67 1010.7
20260904085013 82 304 1.0 7.0 0.00 0.02 0.00 67 1010.8
20260904084524 81 352 2.0 7.0 0.00 0.02 0.00 67 1010.7
20260904084013 81 153 2.0 5.0 0.00 0.02 0.00 67 1010.7
20260904083513 81 194 1.0 6.0 0.00 0.02 0.00 67 1010.7
20260904083034 81 321 1.0 6.0 0.00 0.02 0.00 66 1010.7
20260904082516 81 188 2.0 6.0 0.00 0.02 0.00 66 1010.6
20260904082012 81 285 1.0 5.0 0.00 0.02 0.00 66 1010.6
20260904081522 81 138 1.0 8.0 0.00 0.02 0.00 66 1010.6
20260904081013 81 254 3.0 8.0 0.00 0.02 0.00 66 1010.6
20260904080517 81 163 1.0 9.0 0.00 0.02 0.00 66 1010.7
20260904080025 81 136 2.0 8.0 0.00 0.02 0.00 65 1010.7
20260904075514 81 81 1.0 5.0 0.00 0.02 0.00 66 1010.7
20260904075018 81 265 2.0 5.0 0.00 0.02 0.00 65 1010.7
20260904074537 81 164 1.0 8.0 0.00 0.02 0.00 65 1010.8
20260904074013 81 178 2.0 8.0 0.00 0.02 0.00 65 1010.7
20260904073513 81 157 2.0 5.0 0.00 0.02 0.00 65 1010.7
20260904073034 81 317 1.0 5.0 0.00 0.02 0.00 66 1010.8
20260904072513 81 223 1.0 5.0 0.00 0.02 0.00 66 1010.7
20260904072016 81 332 1.0 5.0 0.00 0.02 0.00 66 1010.7
20260904071522 81 337 1.0 4.0 0.00 0.02 0.00 66 1010.7
20260904071018 81 240 0.0 5.0 0.00 0.02 0.00 66 1010.8
20260904070504 81 190 0.0 7.0 0.00 0.02 0.00 65 1010.8
20260904070002 81 174 1.0 7.0 0.00 0.02 0.00 65 1010.8
20260904065503 81 49 1.0 3.0 0.00 0.02 0.00 65 1010.8
20260904065002 81 55 0.0 6.0 0.00 0.02 0.00 65 1010.7
20260904064510 81 121 1.0 6.0 0.00 0.02 0.00 65 1010.8
20260904064002 82 199 0.0 6.0 0.00 0.02 0.00 65 1010.9
20260904063504 82 147 1.0 6.0 0.00 0.02 0.00 64 1010.8
20260904063001 82 159 1.0 7.0 0.00 0.02 0.00 64 1010.8
20260904062503 82 273 1.0 7.0 0.00 0.02 0.00 64 1010.8
20260904062002 82 213 1.0 3.0 0.00 0.02 0.00 63 1010.8
20260904061506 82 166 1.0 4.0 0.00 0.02 0.00 64 1010.7
20260904061004 83 208 1.0 6.0 0.00 0.02 0.00 63 1010.7
20260904060506 83 213 2.0 6.0 0.00 0.02 0.00 63 1010.7
20260904060004 83 323 1.0 7.0 0.00 0.02 0.00 63 1010.7
20260904055502 83 65 1.0 8.0 0.00 0.02 0.00 62 1010.7
20260904055003 83 145 1.0 8.0 0.00 0.02 0.00 62 1010.7
20260904054508 83 77 0.0 5.0 0.00 0.02 0.00 62 1010.7
20260904054002 83 218 1.0 5.0 0.00 0.02 0.00 62 1010.5
20260904053502 83 210 2.0 5.0 0.00 0.02 0.00 62 1010.3
20260904053006 83 188 1.0 11.0 0.00 0.02 0.00 62 1010.4
20260904052503 83 23 2.0 11.0 0.00 0.02 0.00 62 1010.4
20260904052005 83 126 2.0 8.0 0.00 0.02 0.00 63 1010.3
20260904051504 83 229 2.0 8.0 0.00 0.02 0.00 63 1010.3
20260904051004 83 244 1.0 8.0 0.00 0.02 0.00 63 1010.4
20260904050505 83 159 0.0 3.0 0.00 0.02 0.00 63 1010.4
20260904050005 83 233 1.0 3.0 0.00 0.02 0.00 63 1010.3
20260904045505 83 208 0.0 4.0 0.00 0.02 0.02 63 1010.3
20260904045004 83 149 1.0 5.0 0.00 0.02 0.02 63 1010.3
20260904044503 83 98 1.0 5.0 0.00 0.02 0.02 63 1010.3
20260904044003 83 167 2.0 5.0 0.00 0.02 0.02 63 1010.2
20260904043503 83 182 0.0 8.0 0.00 0.02 0.02 63 1010.3
20260904043001 84 52 0.0 8.0 0.00 0.02 0.02 63 1010.2
20260904042503 84 242 1.0 5.0 0.00 0.02 0.02 63 1010.2
20260904042002 84 315 0.0 4.0 0.00 0.02 0.02 63 1010.2
20260904041504 84 103 0.0 4.0 0.00 0.02 0.02 63 1010.3
20260904041004 84 221 1.0 4.0 0.00 0.02 0.02 62 1010.2
20260904040502 84 348 1.0 8.0 0.00 0.02 0.02 62 1010.2
20260904040006 84 25 2.0 8.0 0.00 0.02 0.02 62 1010.2
20260904035504 84 251 2.0 8.0 0.00 0.02 0.02 62 1010.2
20260904035004 85 248 2.0 7.0 0.00 0.02 0.02 62 1010.2
20260904034511 85 272 1.0 3.0 0.00 0.02 0.02 62 1010.3
20260904034007 85 160 0.0 4.0 0.00 0.02 0.02 62 1010.3
20260904033504 85 96 0.0 4.0 0.00 0.02 0.02 62 1010.3
20260904033002 85 332 1.0 5.0 0.00 0.02 0.02 62 1010.3
20260904032509 84 86 2.0 5.0 0.00 0.02 0.02 63 1010.2
20260904032008 84 104 0.0 4.0 0.00 0.02 0.02 64 1010.2
20260904031504 85 17 1.0 4.0 0.00 0.02 0.02 63 1010.2
20260904031005 85 172 1.0 4.0 0.00 0.02 0.02 63 1010.1
20260904030503 85 158 0.0 4.0 0.00 0.02 0.02 63 1010.0
20260904030001 85 82 1.0 3.0 0.00 0.02 0.02 64 1009.9
20260904025504 85 232 1.0 3.0 0.00 0.02 0.02 63 1009.9
20260904025003 85 128 0.0 2.0 0.00 0.02 0.02 64 1010.0
20260904024506 85 74 0.0 2.0 0.00 0.02 0.02 64 1009.9
20260904024003 85 80 0.0 3.0 0.00 0.02 0.02 65 1009.9
20260904023505 85 80 0.0 3.0 0.00 0.02 0.02 64 1009.9
20260904023012 85 77 0.0 3.0 0.00 0.02 0.02 64 1009.9
20260904022504 85 119 1.0 4.0 0.00 0.02 0.02 63 1009.9
20260904022006 86 121 0.0 4.0 0.00 0.02 0.02 63 1009.8
20260904021516 86 194 1.0 3.0 0.00 0.02 0.02 62 1009.8
20260904021017 86 223 1.0 3.0 0.00 0.02 0.02 62 1009.7
20260904020504 86 35 0.0 4.0 0.00 0.02 0.02 62 1009.7
20260904020006 86 212 1.0 4.0 0.00 0.02 0.02 62 1009.7
20260904015505 87 5 0.0 3.0 0.00 0.02 0.02 61 1009.7
20260904015005 87 5 0.0 4.0 0.00 0.02 0.02 60 1009.6
20260904014505 87 120 1.0 5.0 0.00 0.02 0.02 60 1009.5
20260904014005 87 231 1.0 5.0 0.00 0.02 0.02 60 1009.4
20260904013505 88 221 1.0 5.0 0.00 0.02 0.02 59 1009.3
20260904013006 88 278 1.0 5.0 0.00 0.02 0.02 59 1009.3
20260904012508 88 170 2.0 7.0 0.00 0.02 0.02 58 1009.3
20260904012012 88 178 1.0 7.0 0.00 0.02 0.02 59 1009.1
20260904011502 88 191 0.0 6.0 0.00 0.02 0.02 59 1009.0
20260904011002 88 340 1.0 5.0 0.00 0.02 0.02 59 1009.1
20260904010511 88 203 2.0 7.0 0.00 0.02 0.02 59 1009.0
20260904010020 89 198 3.0 7.0 0.00 0.02 0.02 59 1009.0
20260904005503 89 119 1.0 7.0 0.00 0.02 0.02 59 1008.9
20260904005003 89 286 1.0 8.0 0.00 0.02 0.02 59 1008.9
20260904004526 89 90 2.0 8.0 0.00 0.02 0.02 58 1008.8
20260904004004 89 197 1.0 5.0 0.00 0.02 0.02 58 1008.8
20260904003503 90 219 0.0 5.0 0.00 0.02 0.02 59 1008.8
20260904003007 90 213 2.0 5.0 0.00 0.02 0.02 58 1008.8
20260904002506 90 309 1.0 4.0 0.00 0.02 0.02 58 1008.8
20260904002004 90 200 1.0 4.0 0.00 0.02 0.02 57 1008.8
20260904001516 90 225 1.0 4.0 0.00 0.02 0.02 57 1008.8
20260904001006 91 190 1.0 4.0 0.00 0.02 0.02 56 1008.7
20260904000511 91 188 2.0 4.0 0.00 0.02 0.02 56 1008.7
20260904000014 91 200 1.0 6.0 0.00 0.02 0.02 57 1008.6
20260903235509 92 259 1.0 8.0 0.00 0.02 0.02 55 1008.6
20260903235013 92 240 3.0 8.0 0.00 0.02 0.02 55 1008.7
20260903234506 92 279 2.0 8.0 0.00 0.02 0.02 55 1008.6
20260903234009 92 42 3.0 8.0 0.00 0.02 0.02 54 1008.6
20260903233510 92 219 1.0 4.0 0.00 0.02 0.02 56 1008.6
20260903233004 93 66 1.0 8.0 0.00 0.02 0.02 53 1008.6
20260903232508 93 224 3.0 8.0 0.00 0.02 0.02 53 1008.6
20260903232005 93 333 3.0 7.0 0.00 0.02 0.02 53 1008.6
20260903231512 93 209 2.0 7.0 0.00 0.02 0.02 53 1008.6
20260903231005 93 206 1.0 6.0 0.00 0.02 0.02 53 1008.4
20260903230505 93 174 1.0 8.0 0.00 0.02 0.02 52 1008.5
20260903230015 94 173 3.0 7.0 0.00 0.02 0.02 52 1008.5
20260903225510 94 242 1.0 7.0 0.00 0.02 0.02 53 1008.4
20260903225005 94 171 2.0 6.0 0.00 0.02 0.02 52 1008.5
20260903224517 95 65 1.0 5.0 0.00 0.02 0.02 52 1008.4
20260903224011 95 114 1.0 7.0 0.00 0.02 0.02 51 1008.3
20260903223514 95 212 2.0 8.0 0.00 0.02 0.02 52 1008.3
20260903223010 95 242 1.0 9.0 0.00 0.02 0.02 53 1008.3
20260903222516 95 274 1.0 9.0 0.00 0.02 0.02 52 1008.3
20260903222018 95 12 3.0 8.0 0.00 0.02 0.02 52 1008.4
20260903221505 95 179 3.0 9.0 0.00 0.02 0.02 53 1008.3
20260903221006 95 336 2.0 9.0 0.00 0.02 0.02 52 1008.3
20260903220505 95 295 2.0 12.0 0.00 0.02 0.02 53 1008.4
20260903220013 95 254 2.0 12.0 0.00 0.02 0.02 52 1008.3
20260903215509 95 74 2.0 10.0 0.00 0.02 0.02 51 1008.4
20260903215012 95 163 1.0 10.0 0.00 0.02 0.02 53 1008.4
20260903214519 95 101 2.0 10.0 0.00 0.02 0.02 52 1008.3
20260903214011 95 189 3.0 10.0 0.00 0.02 0.02 52 1008.4
20260903213515 95 79 2.0 8.0 0.00 0.02 0.02 53 1008.4
20260903213010 95 192 3.0 9.0 0.00 0.02 0.02 53 1008.5
20260903212516 95 180 2.0 9.0 0.00 0.02 0.02 51 1008.5
20260903212011 95 126 2.0 7.0 0.00 0.02 0.02 52 1008.4
20260903211518 95 220 3.0 8.0 0.00 0.02 0.02 51 1008.5
20260903211014 95 159 4.0 8.0 0.00 0.02 0.02 52 1008.5
20260903210518 96 289 1.0 7.0 0.00 0.02 0.02 54 1008.5
20260903210010 95 51 1.0 13.0 0.00 0.02 0.02 54 1008.6
20260903205509 95 152 3.0 13.0 0.00 0.02 0.02 54 1008.7
20260903205009 95 300 3.0 8.0 0.00 0.02 0.02 51 1008.7
20260903204512 95 212 3.0 8.0 0.00 0.02 0.02 51 1008.7
20260903204012 95 128 1.0 12.0 0.00 0.02 0.02 53 1008.8
20260903203511 95 264 3.0 12.0 0.00 0.02 0.02 54 1008.9
20260903203023 95 259 2.0 9.0 0.00 0.02 0.02 52 1008.9
20260903202509 96 342 3.0 9.0 0.00 0.02 0.02 52 1009.0
20260903202014 95 333 3.0 9.0 0.00 0.02 0.02 51 1008.9
20260903201522 95 201 1.0 12.0 0.00 0.02 0.02 53 1009.0
20260903201004 95 201 4.0 12.0 0.00 0.02 0.02 51 1009.0
20260903200504 96 344 2.0 8.0 0.00 0.02 0.02 51 1009.0
20260903200008 95 294 2.0 8.0 0.00 0.02 0.02 51 1009.0
20260903195506 95 55 1.0 9.0 0.00 0.02 0.02 51 1009.1
20260903195008 95 230 2.0 10.0 0.00 0.02 0.02 52 1009.1
20260903194512 94 75 3.0 10.0 0.00 0.02 0.02 55 1009.1
20260903194004 94 209 2.0 11.0 0.00 0.02 0.02 55 1009.1
20260903193509 94 245 3.0 11.0 0.00 0.02 0.02 55 1009.3
20260903193009 93 204 2.0 6.0 0.00 0.02 0.02 56 1009.4
20260903192511 93 165 1.0 6.0 0.00 0.02 0.02 56 1009.4
20260903192003 94 211 3.0 8.0 0.00 0.02 0.02 57 1009.4
20260903191508 93 150 2.0 8.0 0.00 0.02 0.02 55 1009.5
20260903191012 93 236 1.0 5.0 0.00 0.02 0.02 60 1009.7
20260903190504 93 232 1.0 7.0 0.00 0.02 0.02 57 1009.8
20260903190006 92 189 2.0 7.0 0.00 0.02 0.02 58 1009.9
20260903185503 92 205 2.0 9.0 0.00 0.02 0.02 56 1010.0
20260903185007 91 157 3.0 9.0 0.00 0.02 0.02 56 1009.9
20260903184510 92 65 1.0 6.0 0.00 0.02 0.02 58 1009.9
20260903184009 92 178 1.0 6.0 0.00 0.02 0.02 59 1010.1
20260903183513 91 56 1.0 6.0 0.00 0.02 0.02 58 1010.2
20260903183005 92 306 1.0 4.0 0.00 0.02 0.02 58 1010.2
20260903182511 92 102 0.0 9.0 0.00 0.02 0.02 62 1010.4
20260903182011 91 128 1.0 9.0 0.00 0.02 0.02 60 1010.4
20260903181523 90 141 1.0 5.0 0.00 0.02 0.02 59 1010.4
20260903181003 91 315 2.0 5.0 0.00 0.02 0.02 58 1010.6
20260903180512 90 161 1.0 4.0 0.00 0.02 0.02 57 1010.6
20260903180021 90 294 1.0 5.0 0.00 0.02 0.02 60 1010.7
20260903175510 90 229 2.0 5.0 0.00 0.02 0.02 56 1010.7
20260903175004 90 235 1.0 6.0 0.00 0.02 0.02 61 1010.8
20260903174508 89 285 1.0 6.0 0.00 0.02 0.02 58 1010.8